Year,Month,Day,Hour,Minute,Value (Times are PST for temperature in C)
2012,09,15,00,00,16.10
2012,09,15,00,01,16.20
2012,09,15,00,02,16.20
2012,09,15,00,03,16.20
2012,09,15,00,04,16.20
2012,09,15,00,05,16.10
2012,09,15,00,06,16.10
2012,09,15,00,07,16.10
2012,09,15,00,08,16.00
2012,09,15,00,09,15.90
2012,09,15,00,10,15.90
2012,09,15,00,11,15.90
2012,09,15,00,12,15.90
2012,09,15,00,13,15.90
2012,09,15,00,14,15.90
2012,09,15,00,15,15.90
2012,09,15,00,16,15.90
2012,09,15,00,17,15.90
2012,09,15,00,18,15.90
2012,09,15,00,19,16.00
2012,09,15,00,20,15.90
2012,09,15,00,21,16.00
2012,09,15,00,22,16.00
2012,09,15,00,23,15.90
2012,09,15,00,24,16.00
2012,09,15,00,25,16.00
2012,09,15,00,26,16.00
2012,09,15,00,27,16.00
2012,09,15,00,28,16.00
2012,09,15,00,29,16.00
2012,09,15,00,30,16.00
2012,09,15,00,31,16.00
2012,09,15,00,32,16.00
2012,09,15,00,33,16.00
2012,09,15,00,34,16.00
2012,09,15,00,35,16.00
2012,09,15,00,36,15.90
2012,09,15,00,37,15.90
2012,09,15,00,38,15.90
2012,09,15,00,39,15.80
2012,09,15,00,40,15.80
2012,09,15,00,41,15.80
2012,09,15,00,42,15.70
2012,09,15,00,43,15.70
2012,09,15,00,44,15.70
2012,09,15,00,45,15.60
2012,09,15,00,46,15.60
2012,09,15,00,47,15.60
2012,09,15,00,48,15.60
2012,09,15,00,49,15.60
2012,09,15,00,50,15.60
2012,09,15,00,51,15.70
2012,09,15,00,52,15.70
2012,09,15,00,53,15.70
2012,09,15,00,54,15.70
2012,09,15,00,55,15.70
2012,09,15,00,56,15.70
2012,09,15,00,57,15.70
2012,09,15,00,58,15.70
2012,09,15,00,59,15.60
2012,09,15,01,00,15.50
2012,09,15,01,01,15.40
2012,09,15,01,02,15.30
2012,09,15,01,03,15.20
2012,09,15,01,04,15.10
2012,09,15,01,05,15.10
2012,09,15,01,06,15.00
2012,09,15,01,07,15.00
2012,09,15,01,08,14.90
2012,09,15,01,09,14.80
2012,09,15,01,10,14.70
2012,09,15,01,11,14.60
2012,09,15,01,12,14.50
2012,09,15,01,13,14.40
2012,09,15,01,14,14.30
2012,09,15,01,15,14.30
2012,09,15,01,16,14.30
2012,09,15,01,17,14.30
2012,09,15,01,18,14.30
2012,09,15,01,19,14.30
2012,09,15,01,20,14.40
2012,09,15,01,21,14.40
2012,09,15,01,22,14.50
2012,09,15,01,23,14.50
2012,09,15,01,24,14.50
2012,09,15,01,25,14.60
2012,09,15,01,26,14.60
2012,09,15,01,27,14.60
2012,09,15,01,28,14.60
2012,09,15,01,29,14.60
2012,09,15,01,30,14.70
2012,09,15,01,31,14.70
2012,09,15,01,32,14.80
2012,09,15,01,33,14.80
2012,09,15,01,34,14.80
2012,09,15,01,35,14.70
2012,09,15,01,36,14.60
2012,09,15,01,37,14.60
2012,09,15,01,38,14.50
2012,09,15,01,39,14.40
2012,09,15,01,40,14.30
2012,09,15,01,41,14.30
2012,09,15,01,42,14.20
2012,09,15,01,43,14.20
2012,09,15,01,44,14.10
2012,09,15,01,45,14.10
2012,09,15,01,46,14.00
2012,09,15,01,47,13.90
2012,09,15,01,48,13.80
2012,09,15,01,49,13.70
2012,09,15,01,50,13.70
2012,09,15,01,51,13.60
2012,09,15,01,52,13.50
2012,09,15,01,53,13.40
2012,09,15,01,54,13.30
2012,09,15,01,55,13.30
2012,09,15,01,56,13.20
2012,09,15,01,57,13.20
2012,09,15,01,58,13.10
2012,09,15,01,59,13.10
2012,09,15,02,00,13.10
2012,09,15,02,01,13.10
2012,09,15,02,02,13.10
2012,09,15,02,03,13.10
2012,09,15,02,04,13.10
2012,09,15,02,05,13.10
2012,09,15,02,06,13.10
2012,09,15,02,07,13.10
2012,09,15,02,08,13.10
2012,09,15,02,09,13.10
2012,09,15,02,10,13.10
2012,09,15,02,11,13.10
2012,09,15,02,12,13.10
2012,09,15,02,13,13.20
2012,09,15,02,14,13.20
2012,09,15,02,15,13.20
2012,09,15,02,16,13.20
2012,09,15,02,17,13.20
2012,09,15,02,18,13.20
2012,09,15,02,19,13.20
2012,09,15,02,20,13.20
2012,09,15,02,21,13.20
2012,09,15,02,22,13.30
2012,09,15,02,23,13.60
2012,09,15,02,24,13.70
2012,09,15,02,25,13.80
2012,09,15,02,26,13.80
2012,09,15,02,27,13.80
2012,09,15,02,28,13.80
2012,09,15,02,29,13.80
2012,09,15,02,30,13.80
2012,09,15,02,31,13.80
2012,09,15,02,32,13.80
2012,09,15,02,33,13.80
2012,09,15,02,34,13.80
2012,09,15,02,35,13.80
2012,09,15,02,36,13.80
2012,09,15,02,37,13.90
2012,09,15,02,38,13.90
2012,09,15,02,39,13.90
2012,09,15,02,40,14.00
2012,09,15,02,41,14.00
2012,09,15,02,42,14.00
2012,09,15,02,43,14.00
2012,09,15,02,44,14.00
2012,09,15,02,45,14.00
2012,09,15,02,46,14.00
2012,09,15,02,47,14.00
2012,09,15,02,48,14.10
2012,09,15,02,49,14.10
2012,09,15,02,50,14.10
2012,09,15,02,51,14.10
2012,09,15,02,52,14.10
2012,09,15,02,53,14.10
2012,09,15,02,54,14.10
2012,09,15,02,55,14.10
2012,09,15,02,56,14.10
2012,09,15,02,57,14.10
2012,09,15,02,58,14.10
2012,09,15,02,59,14.20
2012,09,15,03,00,14.20
2012,09,15,03,01,14.20
2012,09,15,03,02,14.20
2012,09,15,03,03,14.20
2012,09,15,03,04,14.10
2012,09,15,03,05,14.10
2012,09,15,03,06,14.10
2012,09,15,03,07,14.00
2012,09,15,03,08,14.00
2012,09,15,03,09,13.90
2012,09,15,03,10,13.80
2012,09,15,03,11,13.80
2012,09,15,03,12,13.80
2012,09,15,03,13,13.80
2012,09,15,03,14,13.70
2012,09,15,03,15,13.60
2012,09,15,03,16,13.50
2012,09,15,03,17,13.50
2012,09,15,03,18,13.40
2012,09,15,03,19,13.40
2012,09,15,03,20,13.40
2012,09,15,03,21,13.40
2012,09,15,03,22,13.40
2012,09,15,03,23,13.40
2012,09,15,03,24,13.30
2012,09,15,03,25,13.30
2012,09,15,03,26,13.30
2012,09,15,03,27,13.30
2012,09,15,03,28,13.30
2012,09,15,03,29,13.40
2012,09,15,03,30,13.40
2012,09,15,03,31,13.40
2012,09,15,03,32,13.40
2012,09,15,03,33,13.30
2012,09,15,03,34,13.30
2012,09,15,03,35,13.20
2012,09,15,03,36,13.20
2012,09,15,03,37,13.10
2012,09,15,03,38,13.00
2012,09,15,03,39,12.90
2012,09,15,03,40,12.90
2012,09,15,03,41,12.80
2012,09,15,03,42,12.70
2012,09,15,03,43,12.70
2012,09,15,03,44,12.60
2012,09,15,03,45,12.50
2012,09,15,03,46,12.50
2012,09,15,03,47,12.40
2012,09,15,03,48,12.40
2012,09,15,03,49,12.40
2012,09,15,03,50,12.30
2012,09,15,03,51,12.30
2012,09,15,03,52,12.30
2012,09,15,03,53,12.30
2012,09,15,03,54,12.30
2012,09,15,03,55,12.40
2012,09,15,03,56,12.40
2012,09,15,03,57,12.40
2012,09,15,03,58,12.40
2012,09,15,03,59,12.40
2012,09,15,04,00,12.40
2012,09,15,04,01,12.40
2012,09,15,04,02,12.40
2012,09,15,04,03,12.40
2012,09,15,04,04,12.40
2012,09,15,04,05,12.40
2012,09,15,04,06,12.40
2012,09,15,04,07,12.30
2012,09,15,04,08,12.30
2012,09,15,04,09,12.20
2012,09,15,04,10,12.20
2012,09,15,04,11,12.10
2012,09,15,04,12,12.00
2012,09,15,04,13,11.90
2012,09,15,04,14,11.90
2012,09,15,04,15,11.90
2012,09,15,04,16,12.00
2012,09,15,04,17,12.00
2012,09,15,04,18,12.00
2012,09,15,04,19,12.00
2012,09,15,04,20,12.10
2012,09,15,04,21,12.10
2012,09,15,04,22,12.10
2012,09,15,04,23,12.10
2012,09,15,04,24,12.10
2012,09,15,04,25,12.20
2012,09,15,04,26,12.20
2012,09,15,04,27,12.20
2012,09,15,04,28,12.20
2012,09,15,04,29,12.20
2012,09,15,04,30,12.20
2012,09,15,04,31,12.20
2012,09,15,04,32,12.20
2012,09,15,04,33,12.20
2012,09,15,04,34,12.20
2012,09,15,04,35,12.20
2012,09,15,04,36,12.20
2012,09,15,04,37,12.20
2012,09,15,04,38,12.20
2012,09,15,04,39,12.20
2012,09,15,04,40,12.20
2012,09,15,04,41,12.20
2012,09,15,04,42,12.20
2012,09,15,04,43,12.20
2012,09,15,04,44,12.20
2012,09,15,04,45,12.20
2012,09,15,04,46,12.10
2012,09,15,04,47,12.00
2012,09,15,04,48,12.00
2012,09,15,04,49,11.90
2012,09,15,04,50,11.90
2012,09,15,04,51,11.80
2012,09,15,04,52,11.80
2012,09,15,04,53,11.80
2012,09,15,04,54,11.70
2012,09,15,04,55,11.70
2012,09,15,04,56,11.70
2012,09,15,04,57,11.70
2012,09,15,04,58,11.70
2012,09,15,04,59,11.70
2012,09,15,05,00,11.60
2012,09,15,05,01,11.60
2012,09,15,05,02,11.60
2012,09,15,05,03,11.50
2012,09,15,05,04,11.60
2012,09,15,05,05,11.60
2012,09,15,05,06,11.60
2012,09,15,05,07,11.70
2012,09,15,05,08,11.70
2012,09,15,05,09,11.70
2012,09,15,05,10,11.70
2012,09,15,05,11,11.70
2012,09,15,05,12,11.70
2012,09,15,05,13,11.70
2012,09,15,05,14,11.80
2012,09,15,05,15,11.70
2012,09,15,05,16,11.80
2012,09,15,05,17,11.80
2012,09,15,05,18,11.80
2012,09,15,05,19,11.80
2012,09,15,05,20,11.80
2012,09,15,05,21,11.90
2012,09,15,05,22,11.90
2012,09,15,05,23,11.90
2012,09,15,05,24,11.90
2012,09,15,05,25,11.90
2012,09,15,05,26,11.90
2012,09,15,05,27,11.90
2012,09,15,05,28,11.90
2012,09,15,05,29,11.90
2012,09,15,05,30,11.90
2012,09,15,05,31,11.90
2012,09,15,05,32,11.80
2012,09,15,05,33,11.80
2012,09,15,05,34,11.80
2012,09,15,05,35,11.80
2012,09,15,05,36,11.70
2012,09,15,05,37,11.70
2012,09,15,05,38,11.60
2012,09,15,05,39,11.50
2012,09,15,05,40,11.50
2012,09,15,05,41,11.40
2012,09,15,05,42,11.30
2012,09,15,05,43,11.30
2012,09,15,05,44,11.20
2012,09,15,05,45,11.20
2012,09,15,05,46,11.20
2012,09,15,05,47,11.20
2012,09,15,05,48,11.10
2012,09,15,05,49,11.10
2012,09,15,05,50,11.00
2012,09,15,05,51,11.00
2012,09,15,05,52,10.90
2012,09,15,05,53,10.90
2012,09,15,05,54,10.90
2012,09,15,05,55,10.80
2012,09,15,05,56,10.80
2012,09,15,05,57,10.80
2012,09,15,05,58,10.80
2012,09,15,05,59,10.80
2012,09,15,06,00,10.80
2012,09,15,06,01,10.90
2012,09,15,06,02,10.90
2012,09,15,06,03,10.90
2012,09,15,06,04,10.90
2012,09,15,06,05,10.90
2012,09,15,06,06,10.90
2012,09,15,06,07,10.90
2012,09,15,06,08,10.90
2012,09,15,06,09,10.90
2012,09,15,06,10,10.90
2012,09,15,06,11,10.90
2012,09,15,06,12,10.90
2012,09,15,06,13,10.90
2012,09,15,06,14,11.00
2012,09,15,06,15,11.00
2012,09,15,06,16,11.00
2012,09,15,06,17,11.00
2012,09,15,06,18,10.90
2012,09,15,06,19,10.90
2012,09,15,06,20,10.90
2012,09,15,06,21,10.90
2012,09,15,06,22,10.90
2012,09,15,06,23,10.90
2012,09,15,06,24,10.80
2012,09,15,06,25,10.80
2012,09,15,06,26,10.80
2012,09,15,06,27,10.80
2012,09,15,06,28,10.80
2012,09,15,06,29,10.80
2012,09,15,06,30,10.90
2012,09,15,06,31,11.00
2012,09,15,06,32,11.10
2012,09,15,06,33,11.20
2012,09,15,06,34,11.20
2012,09,15,06,35,11.30
2012,09,15,06,36,11.30
2012,09,15,06,37,11.30
2012,09,15,06,38,11.30
2012,09,15,06,39,11.30
2012,09,15,06,40,11.30
2012,09,15,06,41,11.40
2012,09,15,06,42,11.40
2012,09,15,06,43,11.40
2012,09,15,06,44,11.40
2012,09,15,06,45,11.40
2012,09,15,06,46,11.40
2012,09,15,06,47,11.40
2012,09,15,06,48,11.50
2012,09,15,06,49,11.50
2012,09,15,06,50,11.60
2012,09,15,06,51,11.70
2012,09,15,06,52,11.70
2012,09,15,06,53,11.80
2012,09,15,06,54,11.80
2012,09,15,06,55,11.80
2012,09,15,06,56,11.80
2012,09,15,06,57,11.80
2012,09,15,06,58,11.80
2012,09,15,06,59,11.80
2012,09,15,07,00,11.80
2012,09,15,07,01,11.80
2012,09,15,07,02,11.80
2012,09,15,07,03,11.80
2012,09,15,07,04,11.80
2012,09,15,07,05,11.80
2012,09,15,07,06,11.80
2012,09,15,07,07,11.80
2012,09,15,07,08,11.80
2012,09,15,07,09,11.80
2012,09,15,07,10,11.80
2012,09,15,07,11,11.80
2012,09,15,07,12,11.90
2012,09,15,07,13,11.90
2012,09,15,07,14,12.00
2012,09,15,07,15,12.10
2012,09,15,07,16,12.10
2012,09,15,07,17,12.20
2012,09,15,07,18,12.20
2012,09,15,07,19,12.20
2012,09,15,07,20,12.30
2012,09,15,07,21,12.30
2012,09,15,07,22,12.30
2012,09,15,07,23,12.30
2012,09,15,07,24,12.30
2012,09,15,07,25,12.30
2012,09,15,07,26,12.40
2012,09,15,07,27,12.40
2012,09,15,07,28,12.40
2012,09,15,07,29,12.50
2012,09,15,07,30,12.50
2012,09,15,07,31,12.60
2012,09,15,07,32,12.60
2012,09,15,07,33,12.70
2012,09,15,07,34,12.70
2012,09,15,07,35,12.70
2012,09,15,07,36,12.80
2012,09,15,07,37,12.80
2012,09,15,07,38,12.80
2012,09,15,07,39,12.90
2012,09,15,07,40,12.90
2012,09,15,07,41,12.90
2012,09,15,07,42,12.90
2012,09,15,07,43,13.00
2012,09,15,07,44,13.00
2012,09,15,07,45,13.10
2012,09,15,07,46,13.10
2012,09,15,07,47,13.10
2012,09,15,07,48,13.20
2012,09,15,07,49,13.20
2012,09,15,07,50,13.20
2012,09,15,07,51,13.30
2012,09,15,07,52,13.30
2012,09,15,07,53,13.30
2012,09,15,07,54,13.40
2012,09,15,07,55,13.40
2012,09,15,07,56,13.50
2012,09,15,07,57,13.60
2012,09,15,07,58,13.70
2012,09,15,07,59,13.70
2012,09,15,08,00,13.90
2012,09,15,08,01,14.00
2012,09,15,08,02,14.00
2012,09,15,08,03,14.10
2012,09,15,08,04,14.20
2012,09,15,08,05,14.30
2012,09,15,08,06,14.40
2012,09,15,08,07,14.50
2012,09,15,08,08,14.50
2012,09,15,08,09,14.60
2012,09,15,08,10,14.70
2012,09,15,08,11,14.80
2012,09,15,08,12,14.80
2012,09,15,08,13,14.90
2012,09,15,08,14,15.00
2012,09,15,08,15,15.10
2012,09,15,08,16,15.20
2012,09,15,08,17,15.30
2012,09,15,08,18,15.40
2012,09,15,08,19,15.50
2012,09,15,08,20,15.60
2012,09,15,08,21,15.70
2012,09,15,08,22,15.80
2012,09,15,08,23,15.90
2012,09,15,08,24,15.90
2012,09,15,08,25,16.00
2012,09,15,08,26,16.00
2012,09,15,08,27,16.10
2012,09,15,08,28,16.10
2012,09,15,08,29,16.20
2012,09,15,08,30,16.20
2012,09,15,08,31,16.20
2012,09,15,08,32,16.30
2012,09,15,08,33,16.30
2012,09,15,08,34,16.30
2012,09,15,08,35,16.40
2012,09,15,08,36,16.40
2012,09,15,08,37,16.40
2012,09,15,08,38,16.40
2012,09,15,08,39,16.40
2012,09,15,08,40,16.50
2012,09,15,08,41,16.50
2012,09,15,08,42,16.50
2012,09,15,08,43,16.60
2012,09,15,08,44,16.60
2012,09,15,08,45,16.60
2012,09,15,08,46,16.60
2012,09,15,08,47,16.70
2012,09,15,08,48,16.70
2012,09,15,08,49,16.70
2012,09,15,08,50,16.70
2012,09,15,08,51,16.70
2012,09,15,08,52,16.80
2012,09,15,08,53,16.80
2012,09,15,08,54,16.80
2012,09,15,08,55,16.80
2012,09,15,08,56,16.80
2012,09,15,08,57,16.90
2012,09,15,08,58,16.90
2012,09,15,08,59,16.90
2012,09,15,09,00,16.90
2012,09,15,09,01,17.00
2012,09,15,09,02,17.00
2012,09,15,09,03,17.10
2012,09,15,09,04,17.10
2012,09,15,09,05,17.10
2012,09,15,09,06,17.20
2012,09,15,09,07,17.20
2012,09,15,09,08,17.20
2012,09,15,09,09,17.20
2012,09,15,09,10,17.20
2012,09,15,09,11,17.30
2012,09,15,09,12,17.30
2012,09,15,09,13,17.30
2012,09,15,09,14,17.30
2012,09,15,09,15,17.30
2012,09,15,09,16,17.30
2012,09,15,09,17,17.40
2012,09,15,09,18,17.40
2012,09,15,09,19,17.40
2012,09,15,09,20,17.40
2012,09,15,09,21,17.40
2012,09,15,09,22,17.40
2012,09,15,09,23,17.50
2012,09,15,09,24,17.50
2012,09,15,09,25,17.60
2012,09,15,09,26,17.60
2012,09,15,09,27,17.70
2012,09,15,09,28,17.70
2012,09,15,09,29,17.70
2012,09,15,09,30,17.60
2012,09,15,09,31,17.60
2012,09,15,09,32,17.70
2012,09,15,09,33,17.70
2012,09,15,09,34,17.70
2012,09,15,09,35,17.70
2012,09,15,09,36,17.80
2012,09,15,09,37,17.80
2012,09,15,09,38,17.90
2012,09,15,09,39,17.90
2012,09,15,09,40,17.90
2012,09,15,09,41,18.00
2012,09,15,09,42,18.00
2012,09,15,09,43,18.00
2012,09,15,09,44,18.10
2012,09,15,09,45,18.10
2012,09,15,09,46,18.20
2012,09,15,09,47,18.20
2012,09,15,09,48,18.20
2012,09,15,09,49,18.30
2012,09,15,09,50,18.30
2012,09,15,09,51,18.40
2012,09,15,09,52,18.50
2012,09,15,09,53,18.50
2012,09,15,09,54,18.60
2012,09,15,09,55,18.60
2012,09,15,09,56,18.60
2012,09,15,09,57,18.60
2012,09,15,09,58,18.70
2012,09,15,09,59,18.70
2012,09,15,10,00,18.80
2012,09,15,10,01,18.80
2012,09,15,10,02,18.80
2012,09,15,10,03,18.80
2012,09,15,10,04,18.80
2012,09,15,10,05,18.80
2012,09,15,10,06,18.90
2012,09,15,10,07,18.90
2012,09,15,10,08,18.80
2012,09,15,10,09,18.80
2012,09,15,10,10,18.80
2012,09,15,10,11,18.80
2012,09,15,10,12,18.80
2012,09,15,10,13,18.80
2012,09,15,10,14,18.80
2012,09,15,10,15,18.80
2012,09,15,10,16,18.80
2012,09,15,10,17,18.80
2012,09,15,10,18,18.90
2012,09,15,10,19,18.90
2012,09,15,10,20,18.90
2012,09,15,10,21,18.90
2012,09,15,10,22,19.00
2012,09,15,10,23,19.10
2012,09,15,10,24,19.10
2012,09,15,10,25,19.20
2012,09,15,10,26,19.20
2012,09,15,10,27,19.30
2012,09,15,10,28,19.40
2012,09,15,10,29,19.40
2012,09,15,10,30,19.40
2012,09,15,10,31,19.40
2012,09,15,10,32,19.40
2012,09,15,10,33,19.40
2012,09,15,10,34,19.40
2012,09,15,10,35,19.40
2012,09,15,10,36,19.50
2012,09,15,10,37,19.50
2012,09,15,10,38,19.60
2012,09,15,10,39,19.60
2012,09,15,10,40,19.60
2012,09,15,10,41,19.60
2012,09,15,10,42,19.60
2012,09,15,10,43,19.70
2012,09,15,10,44,19.70
2012,09,15,10,45,19.70
2012,09,15,10,46,19.80
2012,09,15,10,47,19.80
2012,09,15,10,48,19.80
2012,09,15,10,49,19.80
2012,09,15,10,50,19.80
2012,09,15,10,51,19.80
2012,09,15,10,52,19.80
2012,09,15,10,53,19.80
2012,09,15,10,54,19.80
2012,09,15,10,55,19.80
2012,09,15,10,56,19.80
2012,09,15,10,57,19.90
2012,09,15,10,58,19.90
2012,09,15,10,59,19.80
2012,09,15,11,00,19.80
2012,09,15,11,01,19.90
2012,09,15,11,02,19.80
2012,09,15,11,03,19.90
2012,09,15,11,04,19.90
2012,09,15,11,05,19.80
2012,09,15,11,06,19.70
2012,09,15,11,07,19.60
2012,09,15,11,08,19.50
2012,09,15,11,09,19.50
2012,09,15,11,10,19.40
2012,09,15,11,11,19.40
2012,09,15,11,12,19.30
2012,09,15,11,13,19.20
2012,09,15,11,14,19.20
2012,09,15,11,15,19.20
2012,09,15,11,16,19.20
2012,09,15,11,17,19.30
2012,09,15,11,18,19.30
2012,09,15,11,19,19.30
2012,09,15,11,20,19.30
2012,09,15,11,21,19.30
2012,09,15,11,22,19.30
2012,09,15,11,23,19.30
2012,09,15,11,24,19.40
2012,09,15,11,25,19.40
2012,09,15,11,26,19.40
2012,09,15,11,27,19.40
2012,09,15,11,28,19.40
2012,09,15,11,29,19.40
2012,09,15,11,30,19.50
2012,09,15,11,31,19.60
2012,09,15,11,32,19.60
2012,09,15,11,33,19.60
2012,09,15,11,34,19.60
2012,09,15,11,35,19.50
2012,09,15,11,36,19.50
2012,09,15,11,37,19.40
2012,09,15,11,38,19.50
2012,09,15,11,39,19.60
2012,09,15,11,40,19.70
2012,09,15,11,41,19.70
2012,09,15,11,42,19.70
2012,09,15,11,43,19.70
2012,09,15,11,44,19.70
2012,09,15,11,45,19.70
2012,09,15,11,46,19.80
2012,09,15,11,47,19.80
2012,09,15,11,48,19.80
2012,09,15,11,49,19.80
2012,09,15,11,50,19.90
2012,09,15,11,51,19.90
2012,09,15,11,52,20.00
2012,09,15,11,53,20.00
2012,09,15,11,54,20.00
2012,09,15,11,55,20.10
2012,09,15,11,56,20.10
2012,09,15,11,57,20.20
2012,09,15,11,58,20.30
2012,09,15,11,59,20.30
2012,09,15,12,00,20.30
2012,09,15,12,01,20.30
2012,09,15,12,02,20.30
2012,09,15,12,03,20.20
2012,09,15,12,04,20.20
2012,09,15,12,05,20.10
2012,09,15,12,06,20.10
2012,09,15,12,07,20.20
2012,09,15,12,08,20.30
2012,09,15,12,09,20.40
2012,09,15,12,10,20.50
2012,09,15,12,11,20.60
2012,09,15,12,12,20.60
2012,09,15,12,13,20.60
2012,09,15,12,14,20.60
2012,09,15,12,15,20.60
2012,09,15,12,16,20.60
2012,09,15,12,17,20.70
2012,09,15,12,18,20.70
2012,09,15,12,19,20.80
2012,09,15,12,20,20.80
2012,09,15,12,21,20.80
2012,09,15,12,22,20.80
2012,09,15,12,23,20.70
2012,09,15,12,24,20.60
2012,09,15,12,25,20.50
2012,09,15,12,26,20.40
2012,09,15,12,27,20.40
2012,09,15,12,28,20.30
2012,09,15,12,29,20.40
2012,09,15,12,30,20.40
2012,09,15,12,31,20.50
2012,09,15,12,32,20.50
2012,09,15,12,33,20.60
2012,09,15,12,34,20.60
2012,09,15,12,35,20.70
2012,09,15,12,36,20.60
2012,09,15,12,37,20.60
2012,09,15,12,38,20.50
2012,09,15,12,39,20.60
2012,09,15,12,40,20.70
2012,09,15,12,41,20.80
2012,09,15,12,42,20.90
2012,09,15,12,43,20.90
2012,09,15,12,44,21.00
2012,09,15,12,45,21.00
2012,09,15,12,46,21.00
2012,09,15,12,47,21.00
2012,09,15,12,48,21.10
2012,09,15,12,49,21.10
2012,09,15,12,50,21.10
2012,09,15,12,51,21.20
2012,09,15,12,52,21.30
2012,09,15,12,53,21.30
2012,09,15,12,54,21.30
2012,09,15,12,55,21.40
2012,09,15,12,56,21.50
2012,09,15,12,57,21.60
2012,09,15,12,58,21.60
2012,09,15,12,59,21.60
2012,09,15,13,00,21.60
2012,09,15,13,01,21.60
2012,09,15,13,02,21.60
2012,09,15,13,03,21.60
2012,09,15,13,04,21.70
2012,09,15,13,05,21.80
2012,09,15,13,06,21.90
2012,09,15,13,07,22.00
2012,09,15,13,08,22.00
2012,09,15,13,09,22.10
2012,09,15,13,10,22.20
2012,09,15,13,11,22.20
2012,09,15,13,12,22.30
2012,09,15,13,13,22.40
2012,09,15,13,14,22.40
2012,09,15,13,15,22.40
2012,09,15,13,16,22.40
2012,09,15,13,17,22.40
2012,09,15,13,18,22.50
2012,09,15,13,19,22.50
2012,09,15,13,20,22.60
2012,09,15,13,21,22.60
2012,09,15,13,22,22.50
2012,09,15,13,23,22.50
2012,09,15,13,24,22.50
2012,09,15,13,25,22.50
2012,09,15,13,26,22.50
2012,09,15,13,27,22.60
2012,09,15,13,28,22.70
2012,09,15,13,29,22.70
2012,09,15,13,30,22.80
2012,09,15,13,31,22.80
2012,09,15,13,32,22.70
2012,09,15,13,33,22.70
2012,09,15,13,34,22.70
2012,09,15,13,35,22.70
2012,09,15,13,36,22.70
2012,09,15,13,37,22.70
2012,09,15,13,38,22.70
2012,09,15,13,39,22.70
2012,09,15,13,40,22.80
2012,09,15,13,41,22.80
2012,09,15,13,42,22.80
2012,09,15,13,43,22.80
2012,09,15,13,44,22.90
2012,09,15,13,45,22.90
2012,09,15,13,46,22.90
2012,09,15,13,47,22.90
2012,09,15,13,48,22.90
2012,09,15,13,49,22.90
2012,09,15,13,50,22.80
2012,09,15,13,51,22.70
2012,09,15,13,52,22.60
2012,09,15,13,53,22.60
2012,09,15,13,54,22.60
2012,09,15,13,55,22.60
2012,09,15,13,56,22.70
2012,09,15,13,57,22.80
2012,09,15,13,58,22.80
2012,09,15,13,59,22.70
2012,09,15,14,00,22.60
2012,09,15,14,01,22.60
2012,09,15,14,02,22.60
2012,09,15,14,03,22.50
2012,09,15,14,04,22.50
2012,09,15,14,05,22.50
2012,09,15,14,06,22.50
2012,09,15,14,07,22.50
2012,09,15,14,08,22.50
2012,09,15,14,09,22.50
2012,09,15,14,10,22.50
2012,09,15,14,11,22.40
2012,09,15,14,12,22.30
2012,09,15,14,13,22.20
2012,09,15,14,14,22.20
2012,09,15,14,15,22.20
2012,09,15,14,16,22.30
2012,09,15,14,17,22.30
2012,09,15,14,18,22.30
2012,09,15,14,19,22.30
2012,09,15,14,20,22.30
2012,09,15,14,21,22.30
2012,09,15,14,22,22.30
2012,09,15,14,23,22.30
2012,09,15,14,24,22.30
2012,09,15,14,25,22.30
2012,09,15,14,26,22.30
2012,09,15,14,27,22.30
2012,09,15,14,28,22.20
2012,09,15,14,29,22.20
2012,09,15,14,30,22.20
2012,09,15,14,31,22.20
2012,09,15,14,32,22.20
2012,09,15,14,33,22.20
2012,09,15,14,34,22.30
2012,09,15,14,35,22.30
2012,09,15,14,36,22.30
2012,09,15,14,37,22.30
2012,09,15,14,38,22.20
2012,09,15,14,39,22.10
2012,09,15,14,40,22.10
2012,09,15,14,41,22.10
2012,09,15,14,42,22.10
2012,09,15,14,43,22.20
2012,09,15,14,44,22.20
2012,09,15,14,45,22.20
2012,09,15,14,46,22.20
2012,09,15,14,47,22.20
2012,09,15,14,48,22.20
2012,09,15,14,49,22.20
2012,09,15,14,50,22.20
2012,09,15,14,51,22.30
2012,09,15,14,52,22.30
2012,09,15,14,53,22.30
2012,09,15,14,54,22.40
2012,09,15,14,55,22.40
2012,09,15,14,56,22.50
2012,09,15,14,57,22.60
2012,09,15,14,58,22.60
2012,09,15,14,59,22.70
2012,09,15,15,00,22.70
2012,09,15,15,01,22.70
2012,09,15,15,02,22.60
2012,09,15,15,03,22.60
2012,09,15,15,04,22.60
2012,09,15,15,05,22.60
2012,09,15,15,06,22.60
2012,09,15,15,07,22.70
2012,09,15,15,08,22.70
2012,09,15,15,09,22.80
2012,09,15,15,10,22.80
2012,09,15,15,11,22.80
2012,09,15,15,12,22.80
2012,09,15,15,13,22.80
2012,09,15,15,14,22.80
2012,09,15,15,15,22.80
2012,09,15,15,16,22.80
2012,09,15,15,17,22.80
2012,09,15,15,18,22.80
2012,09,15,15,19,22.80
2012,09,15,15,20,22.90
2012,09,15,15,21,22.90
2012,09,15,15,22,22.90
2012,09,15,15,23,23.00
2012,09,15,15,24,23.10
2012,09,15,15,25,23.10
2012,09,15,15,26,23.20
2012,09,15,15,27,23.20
2012,09,15,15,28,23.20
2012,09,15,15,29,23.20
2012,09,15,15,30,23.10
2012,09,15,15,31,23.10
2012,09,15,15,32,23.00
2012,09,15,15,33,22.90
2012,09,15,15,34,22.90
2012,09,15,15,35,22.90
2012,09,15,15,36,22.90
2012,09,15,15,37,22.90
2012,09,15,15,38,22.90
2012,09,15,15,39,22.90
2012,09,15,15,40,22.90
2012,09,15,15,41,22.90
2012,09,15,15,42,22.90
2012,09,15,15,43,22.90
2012,09,15,15,44,22.90
2012,09,15,15,45,22.80
2012,09,15,15,46,22.80
2012,09,15,15,47,22.80
2012,09,15,15,48,22.80
2012,09,15,15,49,22.80
2012,09,15,15,50,22.80
2012,09,15,15,51,22.80
2012,09,15,15,52,22.90
2012,09,15,15,53,23.00
2012,09,15,15,54,23.10
2012,09,15,15,55,23.20
2012,09,15,15,56,23.30
2012,09,15,15,57,23.30
2012,09,15,15,58,23.30
2012,09,15,15,59,23.30
2012,09,15,16,00,23.30
2012,09,15,16,01,23.30
2012,09,15,16,02,23.30
2012,09,15,16,03,23.20
2012,09,15,16,04,23.20
2012,09,15,16,05,23.20
2012,09,15,16,06,23.20
2012,09,15,16,07,23.10
2012,09,15,16,08,23.10
2012,09,15,16,09,23.10
2012,09,15,16,10,23.20
2012,09,15,16,11,23.20
2012,09,15,16,12,23.20
2012,09,15,16,13,23.20
2012,09,15,16,14,23.30
2012,09,15,16,15,23.30
2012,09,15,16,16,23.30
2012,09,15,16,17,23.30
2012,09,15,16,18,23.40
2012,09,15,16,19,23.40
2012,09,15,16,20,23.40
2012,09,15,16,21,23.40
2012,09,15,16,22,23.30
2012,09,15,16,23,23.30
2012,09,15,16,24,23.20
2012,09,15,16,25,23.20
2012,09,15,16,26,23.20
2012,09,15,16,27,23.20
2012,09,15,16,28,23.10
2012,09,15,16,29,23.10
2012,09,15,16,30,23.10
2012,09,15,16,31,23.10
2012,09,15,16,32,23.10
2012,09,15,16,33,23.10
2012,09,15,16,34,23.10
2012,09,15,16,35,23.00
2012,09,15,16,36,23.00
2012,09,15,16,37,23.00
2012,09,15,16,38,22.90
2012,09,15,16,39,22.90
2012,09,15,16,40,23.00
2012,09,15,16,41,23.00
2012,09,15,16,42,23.00
2012,09,15,16,43,22.90
2012,09,15,16,44,23.00
2012,09,15,16,45,23.10
2012,09,15,16,46,23.10
2012,09,15,16,47,23.10
2012,09,15,16,48,23.10
2012,09,15,16,49,23.10
2012,09,15,16,50,23.10
2012,09,15,16,51,23.10
2012,09,15,16,52,23.10
2012,09,15,16,53,23.10
2012,09,15,16,54,23.10
2012,09,15,16,55,23.10
2012,09,15,16,56,23.00
2012,09,15,16,57,23.00
2012,09,15,16,58,23.00
2012,09,15,16,59,22.90
2012,09,15,17,00,22.90
2012,09,15,17,01,22.90
2012,09,15,17,02,22.80
2012,09,15,17,03,22.80
2012,09,15,17,04,22.80
2012,09,15,17,05,22.80
2012,09,15,17,06,22.80
2012,09,15,17,07,22.90
2012,09,15,17,08,23.00
2012,09,15,17,09,23.00
2012,09,15,17,10,23.10
2012,09,15,17,11,23.10
2012,09,15,17,12,23.00
2012,09,15,17,13,23.00
2012,09,15,17,14,23.00
2012,09,15,17,15,22.90
2012,09,15,17,16,22.90
2012,09,15,17,17,23.00
2012,09,15,17,18,23.00
2012,09,15,17,19,23.00